Location: Trois-Rivi�res
(46.3500°N, 72.5500°W)
Time: 21:46:42
(UTC-04:00)

N. Korean satellite - Pass Details

Date: 15 October 2017
Orbit: 459 x 517 km, 97.2° (Epoch: 16 October)

Event Time Altitude Azimuth Distance (km) Brightness Sun altitude
Rises 19:00:28 0° 175° (S) 2,539 10.2 -10.6°
Reaches altitude 10° 19:02:33 10° 179° (S) 1,654 9.3 -11.0°
Maximum altitude 19:06:04 59° 259° (W) 557 7.2 -11.6°
Drops below altitude 10° 19:09:33 10° 340° (NNW) 1,640 9.5 -12.2°
Sets 19:11:37 0° 345° (NNW) 2,514 10.4 -12.6°
